When you browse on this site, cookies collect data to enhance your experience and personalize the content and advertising you see.
Visit our Privacy Policy to learn more. By continuing to use the site, you agree to this use of cookies and data.
  • In Romania
  • List of Countries
  • For 7 days
  • Water Temperature
  • Satellite Maps
  • Weather Map
  • Weather Widgets
  • user-avatar
    Login

    Hourly Weather Ras al-Chajma

    Today, 20 May, Monday

    Time Temperature Precipitation Wind Pressure Humidity
    00:00 +35°C° 0.6 mm 4 mps 753 mmHg 40%
    01:00 +34°C° 0.6 mm 4 mps 753 mmHg 41%
    02:00 +34°C° 0.3 mm 3 mps 752 mmHg 40%
    03:00 +35°C° 0.3 mm 3 mps 752 mmHg 39%
    04:00 +34°C° 0 mm 2 mps 753 mmHg 37%
    05:00 +34°C° 0.2 mm 2 mps 753 mmHg 37%
    06:00 +35°C° 0.2 mm 2 mps 753 mmHg 37%
    07:00 +35°C° 0.2 mm 2 mps 753 mmHg 37%
    08:00 +36°C° 0.2 mm 2 mps 754 mmHg 37%
    09:00 +36°C° 0.2 mm 2 mps 754 mmHg 37%
    10:00 +36°C° 0 mm 2 mps 754 mmHg 39%
    11:00 +37°C° 0.3 mm 2 mps 754 mmHg 38%
    12:00 +38°C° 0.3 mm 2 mps 754 mmHg 37%
    13:00 +38°C° 0.3 mm 3 mps 754 mmHg 36%
    14:00 +38°C° 0.4 mm 3 mps 753 mmHg 38%
    15:00 +38°C° 0.4 mm 3 mps 753 mmHg 39%
    16:00 +38°C° 0.4 mm 4 mps 752 mmHg 40%
    17:00 +37°C° 0.3 mm 3 mps 752 mmHg 41%
    18:00 +36°C° 0.3 mm 3 mps 752 mmHg 43%
    19:00 +36°C° 0.3 mm 3 mps 752 mmHg 44%
    20:00 +35°C° 0 mm 3 mps 753 mmHg 46%
    21:00 +35°C° 0 mm 4 mps 753 mmHg 47%
    22:00 +34°C° 0 mm 4 mps 753 mmHg 49%
    23:00 +34°C° 0 mm 4 mps 753 mmHg 51%

    Tomorrow, 21 May, Tuesday

    Time Temperature Precipitation Wind Pressure Humidity
    00:00 +34°C° 0 mm 3 mps 753 mmHg 54%
    01:00 +33°C° 0 mm 3 mps 753 mmHg 56%
    02:00 +32°C° 0 mm 2 mps 753 mmHg 58%
    03:00 +32°C° 0 mm 2 mps 753 mmHg 60%
    04:00 +31°C° 0 mm 2 mps 753 mmHg 63%
    05:00 +31°C° 0 mm 2 mps 753 mmHg 63%
    06:00 +31°C° 0 mm 1 mps 753 mmHg 63%
    07:00 +31°C° 0 mm 1 mps 754 mmHg 63%
    08:00 +32°C° 0 mm 1 mps 754 mmHg 59%
    09:00 +34°C° 0 mm 2 mps 754 mmHg 54%
    10:00 +35°C° 0 mm 2 mps 754 mmHg 50%
    11:00 +35°C° 0 mm 3 mps 754 mmHg 48%
    12:00 +36°C° 0 mm 3 mps 754 mmHg 46%
    13:00 +37°C° 0 mm 4 mps 754 mmHg 45%
    14:00 +36°C° 0 mm 4 mps 753 mmHg 45%
    15:00 +36°C° 0 mm 4 mps 753 mmHg 45%
    16:00 +36°C° 0 mm 5 mps 753 mmHg 46%
    17:00 +36°C° 0 mm 4 mps 753 mmHg 48%
    18:00 +35°C° 0 mm 4 mps 753 mmHg 50%
    19:00 +34°C° 0 mm 3 mps 753 mmHg 52%
    20:00 +34°C° 0 mm 3 mps 753 mmHg 52%
    21:00 +34°C° 0 mm 3 mps 754 mmHg 51%
    22:00 +32°C° 0 mm 2 mps 754 mmHg 51%
    23:00 +33°C° 0 mm 3 mps 754 mmHg 51%

    Day after tomorrow, 22 May, Wednesday

    Time Temperature Precipitation Wind Pressure Humidity
    00:00 +33°C° 0 mm 3 mps 753 mmHg 51%
    01:00 +33°C° 0 mm 4 mps 753 mmHg 51%
    02:00 +31°C° 0 mm 3 mps 753 mmHg 53%
    03:00 +31°C° 0 mm 3 mps 753 mmHg 55%
    04:00 +31°C° 0 mm 3 mps 752 mmHg 57%
    05:00 +31°C° 0 mm 3 mps 753 mmHg 54%
    06:00 +31°C° 0 mm 3 mps 753 mmHg 52%
    07:00 +31°C° 0 mm 3 mps 753 mmHg 49%
    08:00 +34°C° 0 mm 4 mps 753 mmHg 44%
    09:00 +35°C° 0 mm 4 mps 754 mmHg 40%
    10:00 +36°C° 0 mm 4 mps 754 mmHg 35%
    11:00 +36°C° 0 mm 5 mps 754 mmHg 34%
    12:00 +37°C° 0 mm 5 mps 753 mmHg 32%
    13:00 +39°C° 0 mm 5 mps 753 mmHg 31%
    14:00 +37°C° 0 mm 5 mps 752 mmHg 31%
    15:00 +37°C° 0 mm 5 mps 752 mmHg 32%
    16:00 +37°C° 0 mm 5 mps 751 mmHg 33%
    17:00 +36°C° 0 mm 5 mps 752 mmHg 35%
    18:00 +36°C° 0 mm 4 mps 752 mmHg 37%
    19:00 +35°C° 0 mm 4 mps 752 mmHg 39%
    20:00 +35°C° 0 mm 4 mps 752 mmHg 40%
    21:00 +35°C° 0 mm 4 mps 752 mmHg 41%
    22:00 +35°C° 0 mm 4 mps 752 mmHg 42%
    23:00 +34°C° 0 mm 4 mps 752 mmHg 43%

    23 May, Thursday

    Time Temperature Precipitation Wind Pressure Humidity
    00:00 +34°C° 0 mm 4 mps 751 mmHg 45%
    01:00 +34°C° 0 mm 4 mps 751 mmHg 47%
    02:00 +33°C° 0 mm 4 mps 751 mmHg 48%
    03:00 +33°C° 0 mm 3 mps 750 mmHg 50%
    04:00 +31°C° 0 mm 3 mps 750 mmHg 52%
    05:00 +31°C° 0 mm 3 mps 751 mmHg 51%
    06:00 +33°C° 0 mm 3 mps 751 mmHg 49%
    07:00 +33°C° 0 mm 4 mps 751 mmHg 48%
    08:00 +34°C° 0 mm 4 mps 752 mmHg 45%
    09:00 +35°C° 0 mm 3 mps 752 mmHg 41%
    10:00 +36°C° 0 mm 3 mps 752 mmHg 37%
    11:00 +37°C° 0 mm 3 mps 752 mmHg 36%
    12:00 +38°C° 0 mm 4 mps 752 mmHg 35%
    13:00 +38°C° 0 mm 4 mps 752 mmHg 34%
    14:00 +38°C° 0 mm 4 mps 751 mmHg 35%
    15:00 +38°C° 0 mm 4 mps 751 mmHg 35%
    16:00 +39°C° 0 mm 5 mps 751 mmHg 35%
    17:00 +37°C° 0 mm 4 mps 751 mmHg 38%
    18:00 +36°C° 0 mm 4 mps 751 mmHg 41%
    19:00 +35°C° 0 mm 4 mps 751 mmHg 43%
    20:00 +35°C° 0 mm 3 mps 752 mmHg 43%
    21:00 +35°C° 0 mm 3 mps 752 mmHg 43%
    22:00 +34°C° 0 mm 3 mps 752 mmHg 44%
    23:00 +34°C° 0 mm 3 mps 752 mmHg 42%

    24 May, Friday

    Time Temperature Precipitation Wind Pressure Humidity
    00:00 +34°C° 0 mm 3 mps 752 mmHg 40%
    01:00 +34°C° 0 mm 3 mps 751 mmHg 38%
    02:00 +32°C° 0 mm 2 mps 751 mmHg 37%
    03:00 +32°C° 0 mm 2 mps 751 mmHg 36%
    04:00 +31°C° 0 mm 2 mps 751 mmHg 36%
    05:00 +32°C° 0 mm 2 mps 751 mmHg 34%
    06:00 +34°C° 0 mm 2 mps 752 mmHg 32%
    07:00 +34°C° 0 mm 2 mps 752 mmHg 30%
    08:00 +35°C° 0 mm 2 mps 753 mmHg 29%
    09:00 +36°C° 0 mm 2 mps 753 mmHg 27%
    10:00 +37°C° 0 mm 3 mps 753 mmHg 25%
    11:00 +38°C° 0 mm 3 mps 753 mmHg 24%
    12:00 +39°C° 0 mm 3 mps 753 mmHg 24%
    13:00 +39°C° 0 mm 3 mps 752 mmHg 24%
    14:00 +39°C° 0 mm 3 mps 752 mmHg 25%
    15:00 +39°C° 0 mm 3 mps 752 mmHg 27%
    16:00 +40°C° 0 mm 4 mps 751 mmHg 29%
    17:00 +38°C° 0 mm 3 mps 751 mmHg 32%
    18:00 +37°C° 0 mm 3 mps 752 mmHg 35%
    19:00 +36°C° 0 mm 2 mps 752 mmHg 38%
    20:00 +36°C° 0 mm 2 mps 752 mmHg 39%
    21:00 +35°C° 0 mm 2 mps 752 mmHg 40%
    22:00 +35°C° 0 mm 2 mps 753 mmHg 41%
    23:00 +35°C° 0 mm 2 mps 752 mmHg 42%

    25 May, Saturday

    Time Temperature Precipitation Wind Pressure Humidity
    00:00 +34°C° 0 mm 2 mps 752 mmHg 44%
    01:00 +32°C° 0 mm 2 mps 752 mmHg 45%
    02:00 +32°C° 0 mm 2 mps 752 mmHg 45%
    03:00 +32°C° 0 mm 2 mps 751 mmHg 45%
    04:00 +31°C° 0 mm 2 mps 751 mmHg 45%
    05:00 +32°C° 0 mm 2 mps 752 mmHg 42%
    06:00 +34°C° 0 mm 2 mps 752 mmHg 38%
    07:00 +34°C° 0 mm 2 mps 753 mmHg 35%
    08:00 +35°C° 0 mm 2 mps 753 mmHg 33%
    09:00 +37°C° 0 mm 2 mps 753 mmHg 30%
    10:00 +38°C° 0 mm 2 mps 753 mmHg 28%
    11:00 +39°C° 0 mm 3 mps 753 mmHg 27%
    12:00 +39°C° 0 mm 3 mps 752 mmHg 26%
    13:00 +40°C° 0 mm 3 mps 752 mmHg 25%
    14:00 +40°C° 0 mm 3 mps 752 mmHg 27%
    15:00 +40°C° 0 mm 3 mps 751 mmHg 29%
    16:00 +40°C° 0 mm 4 mps 751 mmHg 31%
    17:00 +39°C° 0 mm 3 mps 751 mmHg 33%
    18:00 +38°C° 0 mm 3 mps 751 mmHg 36%
    19:00 +37°C° 0 mm 2 mps 751 mmHg 39%
    20:00 +36°C° 0 mm 2 mps 751 mmHg 41%
    21:00 +36°C° 0 mm 2 mps 752 mmHg 42%
    22:00 +35°C° 0 mm 2 mps 752 mmHg 44%
    23:00 +35°C° 0 mm 2 mps 752 mmHg 45%
    Show more